Total_Precipitation_Accumulation
0.45 0.44 0.41 0.36 0.33 0.32 0.34 0.36 0.38 0.38 0.39 0.43 0.47 0.49 0.50 0.50 0.49 0.51 0.53 0.58 0.64 0.69 0.73 0.83 0.87 0.85 0.83 0.81 0.83 0.82 0.84 0.90 0.78 0.61 0.52 0.51 0.50 0.52 0.47 0.36 0.27 0.22 0.18
0.60 0.65 0.71 0.69 0.62 0.53 0.41 0.37 0.40 0.45 0.45 0.46 0.48 0.50 0.49 0.51 0.58 0.63 0.62 0.68 0.72 0.73 0.74 0.76 0.76 0.77 0.81 0.77 0.76 0.74 0.75 0.81 0.72 0.59 0.53 0.52 0.54 0.56 0.53 0.44 0.35 0.27 0.25
0.85 1.00 1.11 1.09 0.91 0.68 0.49 0.41 0.43 0.47 0.50 0.51 0.55 0.62 0.64 0.65 0.65 0.70 0.74 0.75 0.70 0.65 0.64 0.63 0.62 0.63 0.66 0.68 0.70 0.63 0.59 0.62 0.64 0.61 0.61 0.59 0.56 0.51 0.49 0.49 0.45 0.42 0.32
0.70 0.89 1.02 1.08 0.89 0.67 0.52 0.45 0.39 0.37 0.40 0.45 0.52 0.62 0.71 0.77 0.80 0.75 0.69 0.66 0.61 0.57 0.53 0.49 0.51 0.53 0.55 0.56 0.61 0.58 0.54 0.56 0.59 0.58 0.58 0.60 0.56 0.50 0.48 0.51 0.53 0.56 0.46
0.38 0.55 0.71 0.81 0.66 0.45 0.33 0.28 0.25 0.29 0.37 0.45 0.55 0.62 0.73 0.80 0.78 0.74 0.64 0.60 0.58 0.52 0.46 0.41 0.41 0.40 0.42 0.46 0.49 0.48 0.46 0.47 0.46 0.46 0.47 0.47 0.46 0.44 0.42 0.42 0.50 0.62 0.59
0.31 0.36 0.47 0.52 0.43 0.29 0.17 0.12 0.16 0.23 0.29 0.36 0.41 0.46 0.49 0.50 0.52 0.48 0.43 0.41 0.40 0.37 0.36 0.35 0.33 0.30 0.33 0.35 0.33 0.36 0.37 0.34 0.36 0.42 0.39 0.38 0.36 0.34 0.33 0.39 0.50 0.55 0.65
0.34 0.33 0.39 0.43 0.37 0.25 0.13 0.11 0.14 0.19 0.23 0.26 0.28 0.30 0.30 0.31 0.25 0.20 0.21 0.21 0.25 0.26 0.26 0.26 0.23 0.23 0.27 0.27 0.25 0.22 0.23 0.23 0.26 0.34 0.37 0.32 0.30 0.28 0.29 0.37 0.52 0.67 0.77
0.29 0.30 0.39 0.45 0.42 0.32 0.25 0.22 0.22 0.24 0.25 0.26 0.26 0.25 0.26 0.25 0.18 0.13 0.12 0.12 0.16 0.18 0.21 0.22 0.22 0.21 0.22 0.22 0.19 0.15 0.14 0.15 0.17 0.21 0.26 0.30 0.30 0.29 0.27 0.28 0.34 0.49 0.67
0.28 0.33 0.38 0.46 0.47 0.41 0.37 0.36 0.35 0.34 0.32 0.30 0.28 0.27 0.27 0.27 0.18 0.12 0.10 0.12 0.17 0.18 0.19 0.20 0.20 0.19 0.22 0.19 0.16 0.16 0.15 0.15 0.16 0.19 0.20 0.24 0.27 0.26 0.24 0.18 0.17 0.18 0.25
0.30 0.36 0.41 0.51 0.56 0.50 0.48 0.47 0.45 0.46 0.41 0.37 0.33 0.33 0.34 0.36 0.29 0.17 0.14 0.16 0.22 0.24 0.25 0.24 0.23 0.21 0.20 0.17 0.16 0.18 0.17 0.15 0.14 0.15 0.16 0.18 0.18 0.20 0.19 0.15 0.11 0.11 0.11
0.30 0.35 0.44 0.57 0.62 0.61 0.64 0.65 0.59 0.53 0.52 0.51 0.46 0.43 0.44 0.46 0.39 0.23 0.18 0.23 0.27 0.30 0.31 0.31 0.26 0.23 0.20 0.18 0.18 0.20 0.20 0.18 0.18 0.17 0.16 0.16 0.16 0.17 0.15 0.13 0.12 0.10 0.10
0.32 0.38 0.50 0.57 0.53 0.52 0.67 0.72 0.69 0.66 0.64 0.62 0.59 0.55 0.52 0.51 0.43 0.29 0.22 0.28 0.36 0.40 0.39 0.36 0.34 0.27 0.23 0.22 0.22 0.23 0.24 0.23 0.23 0.22 0.19 0.17 0.15 0.14 0.13 0.11 0.11 0.10 0.10
0.40 0.45 0.52 0.54 0.59 0.67 0.70 0.71 0.73 0.73 0.69 0.64 0.62 0.61 0.61 0.63 0.56 0.35 0.31 0.37 0.45 0.50 0.48 0.46 0.43 0.37 0.29 0.26 0.28 0.28 0.25 0.24 0.26 0.25 0.21 0.15 0.11 0.10 0.11 0.12 0.11 0.10 0.09
0.47 0.46 0.48 0.54 0.59 0.70 0.81 0.80 0.76 0.75 0.75 0.73 0.69 0.64 0.65 0.69 0.67 0.50 0.40 0.49 0.57 0.60 0.56 0.54 0.49 0.47 0.40 0.34 0.34 0.31 0.27 0.30 0.31 0.27 0.22 0.18 0.14 0.12 0.12 0.11 0.09 0.07 0.06
0.57 0.51 0.50 0.54 0.60 0.71 0.78 0.84 0.81 0.79 0.68 0.68 0.68 0.66 0.63 0.66 0.69 0.60 0.54 0.64 0.73 0.74 0.71 0.69 0.62 0.53 0.47 0.42 0.38 0.35 0.34 0.39 0.38 0.34 0.28 0.23 0.19 0.15 0.13 0.11 0.08 0.06 0.04
0.72 0.67 0.64 0.64 0.67 0.69 0.75 0.74 0.65 0.60 0.50 0.47 0.46 0.47 0.46 0.49 0.60 0.57 0.55 0.67 0.77 0.81 0.80 0.74 0.66 0.56 0.47 0.44 0.44 0.42 0.40 0.39 0.36 0.34 0.31 0.26 0.21 0.16 0.13 0.11 0.09 0.07 0.05
0.83 0.81 0.79 0.72 0.71 0.74 0.78 0.81 0.78 0.65 0.55 0.46 0.37 0.32 0.33 0.38 0.48 0.52 0.55 0.65 0.74 0.79 0.77 0.72 0.62 0.55 0.48 0.44 0.43 0.41 0.39 0.37 0.34 0.32 0.30 0.27 0.23 0.16 0.13 0.11 0.08 0.07 0.06
0.85 0.84 0.81 0.77 0.73 0.74 0.78 0.78 0.82 0.83 0.75 0.62 0.45 0.33 0.29 0.30 0.36 0.45 0.52 0.63 0.75 0.76 0.72 0.70 0.61 0.52 0.47 0.45 0.42 0.42 0.39 0.37 0.33 0.30 0.29 0.26 0.23 0.17 0.12 0.10 0.07 0.05 0.04
0.83 0.81 0.78 0.77 0.75 0.71 0.75 0.75 0.74 0.79 0.78 0.72 0.58 0.42 0.34 0.30 0.32 0.41 0.46 0.55 0.68 0.69 0.69 0.65 0.57 0.49 0.45 0.44 0.41 0.39 0.37 0.34 0.30 0.28 0.28 0.26 0.22 0.16 0.11 0.08 0.06 0.04 0.03
0.83 0.76 0.72 0.70 0.71 0.70 0.71 0.74 0.70 0.73 0.72 0.71 0.60 0.45 0.38 0.33 0.32 0.35 0.38 0.49 0.61 0.63 0.60 0.57 0.54 0.47 0.42 0.40 0.37 0.34 0.33 0.29 0.26 0.25 0.25 0.24 0.21 0.15 0.09 0.06 0.04 0.03 0.03
0.87 0.75 0.63 0.60 0.61 0.66 0.70 0.70 0.68 0.66 0.65 0.64 0.53 0.37 0.30 0.26 0.26 0.28 0.32 0.42 0.52 0.53 0.49 0.47 0.46 0.41 0.36 0.32 0.29 0.26 0.25 0.24 0.22 0.21 0.20 0.19 0.18 0.14 0.09 0.05 0.03 0.03 0.03
0.93 0.83 0.68 0.56 0.55 0.61 0.67 0.68 0.65 0.61 0.59 0.58 0.47 0.31 0.24 0.22 0.21 0.23 0.27 0.35 0.41 0.41 0.38 0.36 0.35 0.30 0.26 0.24 0.21 0.19 0.19 0.19 0.18 0.17 0.15 0.14 0.14 0.12 0.08 0.05 0.03 0.02 0.02
0.86 0.78 0.67 0.50 0.48 0.54 0.59 0.64 0.62 0.55 0.53 0.51 0.41 0.28 0.22 0.21 0.20 0.21 0.25 0.29 0.31 0.32 0.30 0.26 0.23 0.20 0.19 0.17 0.15 0.14 0.13 0.13 0.12 0.10 0.09 0.09 0.09 0.09 0.07 0.05 0.03 0.02 0.01
0.73 0.71 0.65 0.47 0.43 0.51 0.55 0.60 0.57 0.47 0.44 0.39 0.29 0.22 0.18 0.19 0.19 0.21 0.23 0.23 0.23 0.24 0.23 0.19 0.15 0.14 0.12 0.11 0.11 0.10 0.09 0.08 0.07 0.06 0.05 0.05 0.05 0.05 0.04 0.03 0.03 0.02 0.01
0.67 0.64 0.64 0.52 0.42 0.46 0.52 0.56 0.51 0.42 0.35 0.28 0.20 0.16 0.14 0.14 0.15 0.18 0.19 0.18 0.17 0.16 0.14 0.12 0.10 0.10 0.08 0.07 0.07 0.06 0.06 0.05 0.05 0.04 0.03 0.03 0.03 0.03 0.02 0.02 0.01 0.01 0.01
0.65 0.62 0.63 0.57 0.47 0.45 0.49 0.48 0.44 0.35 0.25 0.18 0.13 0.11 0.10 0.11 0.12 0.14 0.13 0.11 0.10 0.09 0.08 0.06 0.06 0.05 0.03 0.03 0.03 0.02 0.03 0.03 0.02 0.02 0.02 0.02 0.01 0.01 0.01 0.01 0.01 0.00 0.00